{"data":{"norad_id":64872,"epoch":"2026-09-21T22:53:46.585824Z","epoch_age_seconds":45598,"freshness":"FRESH","line1":"1 64872U 25154D   26264.95401141  .00002997  00000+0  25494-3 0  9992","line2":"2 64872  97.6573 327.8200 0004003 305.4097  54.6752 14.98573786 63537","mean_motion":14.98573786,"eccentricity":0.0004003,"inclination_deg":97.6573,"raan_deg":327.82,"arg_perigee_deg":305.4097,"mean_anomaly_deg":54.6752,"bstar":0.00025494,"rev_number":6353,"period_min":96.091364566282,"perigee_km":568.52024457876,"apogee_km":574.08396552626,"semimajor_km":6949.4391050525,"source":"CELESTRAK","updated_at":"2026-09-22T09:00:30.011771Z"}}